STARLINK-32733 (62477 NORAD) Tracking and Keplerian Element Data

This shows tracking and keplerian element data for the satellite.

Feedback or suggestion? Click here.




ElementValue
Catalog62477
NameSTARLINK-32733
Epoch Orbit666
Epoch Day35.14037572
Epoch Year2025
RAAN110.3086
Inclination43.0013
Eccentricity0.0004135
Argument of Perigee218.047
Mean Anonmoly142.0097
Mean Motion15.47705899
Decay Rate-0.00297254
L11 62477U 24254R 25035.14037572 -.00297254 00000+0 -58145-2 0 9992
L22 62477 43.0013 110.3086 0004135 218.0470 142.0097 15.47705899 6669



Live tracking and technical data element details for STARLINK-32733 (NORAD 62477). STARLINK-32733 can be tracked NOW for your location showing map with azimuth and elevation plus other details from your city location.







IsCatalogInMostPopularTable: catalog: 62477, numindb: 16
Update: records affected: 1



GetName: 62477 STARLINK-32733

Hit Count: updated at: Sun, 18 May 2025 23:34:50 GMT